Medford, OR

10:51 AM PDT on June 26, 2017 (GMT -0700)
Rogue Valley International-Medford

Weather History for KMFR - May, 2014

Change the Weather History Date:

Thursday, May 1, 2014

  Actual Average Record
Temperature  
Mean Temperature 69 °F 56 °F  
Max Temperature 91 °F 69 °F 92 °F (1946)
Min Temperature 47 °F 43 °F 28 °F (1954)
Degree Days  
Heating Degree Days 0 9  
Month to date heating degree days 0 9  
Since 1 July heating degree days 4050 4008  
Cooling Degree Days 4 0  
Month to date cooling degree days 4 0  
Year to date cooling degree days 8 3  
Growing Degree Days 18 (Base 50)    
Moisture  
Dew Point 39 °F    
Average Humidity 43    
Maximum Humidity 71    
Minimum Humidity 15    
Precipitation  
Precipitation 0.00 in 0.04 in 0.58 in (1912)
Month to date precipitation 0.00 0.04  
Year to date precipitation 9.65 7.57  
Snow  
Snow 0.00 in 0.00 in - ()
Month to date snowfall 0.0 0.0  
Since 1 July snowfall 3.4 4.1  
Snow Depth 0.00 in    
Sea Level Pressure  
Sea Level Pressure 30.05 in    
Wind  
Wind Speed 4 mph (NNW)    
Max Wind Speed 18 mph    
Max Gust Speed 26 mph    
Visibility 10 miles    
Events      
T = Trace of Precipitation, MM = Missing Value Source: NWS Daily Summary

Daily Weather History Graph

Daily Weather History Graph

Search for Another Location

Airport or City:

Trip Planner

Search our weather history database for the weather conditions in past years. The results will help you decide how hot, cold, wet, or windy it might be!

Date:

Astronomy

May. 01, 2014 Rise Set
Actual Time 6:06 AM PDT 8:11 PM PDT
Civil Twilight 5:35 AM PDT 8:42 PM PDT
Nautical Twilight 4:58 AM PDT 9:19 PM PDT
Astronomical Twilight 4:17 AM PDT 10:01 PM PDT
Moon 7:57 AM PDT (5/1) 10:50 PM PDT (5/1)
Length of Visible Light 15h 06m
Length of Day
14h 04m
Waxing Crescent, 7% of the Moon is Illuminated
May 1
Waxing Crescent
May 6
First Quarter
May 14
Full
May 21
Last Quarter
May 28
New

Hourly Weather History & Observations

Time (PDT) Temp. Dew Point Humidity Pressure Visibility Wind Dir Wind Speed Gust Speed Precip Events Conditions
12:53 AM 60.1 °F 41.0 °F 49% 30.05 in 10.0 mi Calm Calm - N/A   Clear
1:53 AM 57.0 °F 43.0 °F 59% 30.05 in 10.0 mi Calm Calm - N/A   Clear
2:53 AM 57.9 °F 37.9 °F 47% 30.05 in 10.0 mi North 3.5 mph - N/A   Clear
3:53 AM 55.0 °F 39.0 °F 55% 30.06 in 10.0 mi Calm Calm - N/A   Clear
4:53 AM 52.0 °F 39.9 °F 63% 30.06 in 10.0 mi Calm Calm - N/A   Clear
5:53 AM 48.0 °F 39.9 °F 74% 30.06 in 10.0 mi SE 3.5 mph - N/A   Clear
6:53 AM 48.0 °F 39.9 °F 74% 30.08 in 10.0 mi SE 5.8 mph - N/A   Clear
7:53 AM 55.9 °F 37.0 °F 49% 30.09 in 10.0 mi Calm Calm - N/A   Clear
8:53 AM 57.9 °F 39.9 °F 51% 30.10 in 10.0 mi North 4.6 mph - N/A   Clear
9:53 AM 64.9 °F 41.0 °F 42% 30.09 in 10.0 mi Calm Calm - N/A   Clear
10:53 AM 72.0 °F 37.9 °F 29% 30.07 in 10.0 mi NE 3.5 mph - N/A   Clear
11:53 AM 77.0 °F 39.0 °F 25% 30.06 in 10.0 mi Calm Calm - N/A   Clear
12:53 PM 80.1 °F 39.9 °F 24% 30.05 in 10.0 mi Calm Calm - N/A   Clear
1:53 PM 84.0 °F 37.0 °F 19% 30.04 in 10.0 mi Calm Calm - N/A   Clear
2:53 PM 88.0 °F 39.9 °F 18% 30.01 in 10.0 mi Variable 4.6 mph - N/A   Clear
3:53 PM 89.1 °F 36.0 °F 15% 29.99 in 10.0 mi NW 6.9 mph - N/A   Clear
4:53 PM 89.1 °F 36.0 °F 15% 29.98 in 10.0 mi WNW 4.6 mph - N/A   Clear
5:53 PM 89.1 °F 37.9 °F 16% 29.98 in 10.0 mi WNW 11.5 mph - N/A   Clear
6:53 PM 84.0 °F 37.0 °F 19% 29.99 in 10.0 mi WNW 18.4 mph 26.5 mph N/A   Clear
7:53 PM 80.1 °F 37.9 °F 22% 30.01 in 10.0 mi West 6.9 mph - N/A   Clear
8:53 PM 72.0 °F 39.9 °F 31% 30.04 in 10.0 mi NE 6.9 mph - N/A   Clear
9:53 PM 69.1 °F 39.0 °F 33% 30.07 in 10.0 mi NNE 4.6 mph - N/A   Clear
10:53 PM 66.9 °F 37.9 °F 34% 30.08 in 10.0 mi Calm Calm - N/A   Clear
11:53 PM 63.0 °F 43.0 °F 48% 30.08 in 10.0 mi South 4.6 mph - N/A   Clear